Weather Roundup
Issued by NWS Corpus Christi, TX

Home | Current Version | Previous Version | Text Only | Print | Product List | Glossary On
Versions: 1 2 3 4 5 6 7 8 9 10 11 12 13 14 15 16 17 18 19 20 21 22 23 24 25 26 27 28 29 30 31 32 33 34 35 36 37 38 39 40 41 42 43 44 45 46 47 48 49 50
000
ASUS44 KCRP 192211
HRRCRP

SOUTH TEXAS REGIONAL WEATHER ROUNDUP
NATIONAL WEATHER SERVICE CORPUS CHRISTI TX
400 PM CST SUN NOV 19 2017


TXZ229>244-192300-
...CORPUS CHRISTI AREA OBSERVATIONS...

CITY           SKY/WX    TMP DP  RH WIND       PRES   REMARKS
CORPUS CHRISTI PTSUNNY   68  30  24 NE7       30.22F
NAS CORPUS CHR SUNNY     67  37  33 E12       30.22F
ROCKPORT       PTSUNNY   66  31  27 NE9       30.21F
KINGSVILLE ARP FAIR      68  32  26 N3        30.23S
KINGSVILLE NAS PTSUNNY   68  31  25 NE7       30.22F
ALICE          SUNNY     68  25  19 NE10      30.21F
$$

...VICTORIA AREA OBSERVATIONS...

CITY           SKY/WX    TMP DP  RH WIND       PRES   REMARKS
PORT LAVACA    NOT AVBL
VICTORIA       MOSUNNY   67  29  24 N5        30.23F
BEEVILLE       FAIR      65  29  25 NE7       30.23S
PLEASANTON     CLOUDY    65  26  23 NE6       30.24F
SAN ANTONIO    MOSUNNY   64  25  22 E3        30.24F
$$

...LAREDO AREA OBSERVATIONS...

CITY           SKY/WX    TMP DP  RH WIND       PRES   REMARKS
LAREDO         PTSUNNY   66  28  24 E5        30.23F
COTULLA        PTSUNNY   66  21  18 N5        30.23F
DEL RIO        MOSUNNY   61  23  23 S6        30.22F
MCALLEN        SUNNY     69  37  30 NE6       30.21F
HEBBRONVILLE   SUNNY     65  25  22 NE5       30.23F HAZE
$$

...OTHER TEXAS OBSERVATIONS...

CITY           SKY/WX    TMP DP  RH WIND       PRES   REMARKS
BROWNSVILLE    MOSUNNY   69  50  50 NE12      30.19F
HOUSTON        PTSUNNY   65  30  27 N8        30.21F
COL. STATION   MOSUNNY   63  31  30 N9        30.23F
AUSTIN         PTSUNNY   63  28  26 N10G17    30.23F
WACO           CLOUDY    60  28  29 N8        30.25F
FORT WORTH     PTSUNNY   62  26  25 CALM      30.24F
WICHITA FALLS  SUNNY     61  20  20 S12       30.22F
LUBBOCK        PTSUNNY   57  12  17 S14       30.19F
EL PASO        MOSUNNY   62  11  13 CALM      30.13F
$$

...MARINE OBSERVATIONS...

STATION/POSITION TIME  SKY/WX   TEMP    WIND        PRES    VSBY  WAVE   SWELL
                                AIR SEA DIR/SP/G                  HT/PER HT/PER
                 (UTC)          (F)     (DEG/KT/KT) (MB)    (MI)  (FT/S) (FT/S)
PORT ARANSAS     2200            62 70   20/ 11/ 13 1023.4F
BUOY 90 E PORT A 2150            63 78   10/ 16/ 21 1022.4F         7/ 8   5/ 8
BUOY 200 E PT IS 2150            68 80   30/ 19/ 25 1019.2R         9/ 8
BUOY 15 E GALVES 2050            62 71  350/ 12/ 16 1022.7          3/ 5
$$



USA.gov is the U.S. government's official web portal to all federal, state and local government web resources and services.